^^
Datos históricos de la estación: Murcia-Puente Tocinos
Diario Informe para Enero 17, 2020 Unidades:  Inglés    Métrico   Ambas
Diario Semanal Mensual Anual Configurable
  Máximo: Mínimo: Media:
Temperatura: 67.5 °F 40.8 °F 53.8 °F
Punto de rocio: 42.1 °F 35.1 °F 39 °F
Humedad: 80% 36% 60%
Velocidad viento: 13mph 1mph 4.4mph
Racha viento: 23mph - -
Viento- - SSW
Presión: 30.5 in 30.3 in -
Precipitación: 0 in    
Historical Graphs
 
 
Tabla de datos para Enero 17, 2020
Hora Temperatura Punto de rocio Presión Viento Velocidad viento Racha viento Humedad Intensidad lluvia(por hora) Nubes
00:00 50 °F 41 °F 30.3 in SW 5 mph 6 mph 71% 0 in CLR
00:05 49.8 °F 40.8 °F 30.3 in SW 5 mph 7 mph 71% 0 in CLR
00:10 49.8 °F 40.8 °F 30.4 in SW 5 mph 7 mph 71% 0 in CLR
00:15 49.6 °F 40.6 °F 30.4 in SW 5 mph 6 mph 71% 0 in CLR
00:20 49.6 °F 41 °F 30.4 in SW 5 mph 6 mph 72% 0 in CLR
00:25 49.6 °F 41 °F 30.3 in SSW 5 mph 6 mph 72% 0 in CLR
00:30 49.6 °F 40.6 °F 30.3 in SSW 5 mph 6 mph 71% 0 in CLR
00:35 49.6 °F 40.6 °F 30.3 in SSW 5 mph 6 mph 71% 0 in CLR
00:40 49.5 °F 40.5 °F 30.3 in South 5 mph 7 mph 71% 0 in CLR
00:45 49.3 °F 40.3 °F 30.3 in South 5 mph 9 mph 71% 0 in CLR
00:50 48.9 °F 40.3 °F 30.3 in South 5 mph 9 mph 72% 0 in CLR
00:55 48.7 °F 40.5 °F 30.3 in SSW 6 mph 9 mph 73% 0 in CLR
01:00 48.7 °F 40.5 °F 30.3 in SSW 6 mph 9 mph 73% 0 in CLR
01:05 48.7 °F 40.5 °F 30.3 in SSW 6 mph 8 mph 73% 0 in CLR
01:10 48.7 °F 40.1 °F 30.3 in SSW 6 mph 7 mph 72% 0 in CLR
01:15 48.7 °F 40.1 °F 30.3 in SSW 5 mph 5 mph 72% 0 in CLR
01:20 48.6 °F 40.3 °F 30.3 in SSW 5 mph 7 mph 73% 0 in CLR
01:25 48.4 °F 40.1 °F 30.3 in SW 3 mph 7 mph 73% 0 in CLR
01:30 48.4 °F 39.7 °F 30.3 in SW 3 mph 6 mph 72% 0 in CLR
01:35 48.4 °F 39.7 °F 30.3 in SSW 5 mph 7 mph 72% 0 in CLR
01:40 48 °F 39.4 °F 30.3 in SSE 5 mph 7 mph 72% 0 in CLR
01:45 47.7 °F 39.4 °F 30.3 in SSE 5 mph 9 mph 73% 0 in CLR
01:50 47.1 °F 39.4 °F 30.3 in SSE 5 mph 7 mph 74% 0 in CLR
01:55 46.9 °F 39.4 °F 30.3 in SSE 5 mph 8 mph 75% 0 in CLR
02:00 46.8 °F 39.4 °F 30.3 in South 5 mph 6 mph 75% 0 in CLR
02:05 46.8 °F 39.4 °F 30.3 in SSE 5 mph 7 mph 75% 0 in CLR
02:10 46.6 °F 39.4 °F 30.3 in SSW 5 mph 7 mph 76% 0 in CLR
02:15 46.6 °F 39.4 °F 30.3 in SW 5 mph 6 mph 76% 0 in CLR
02:20 46.6 °F 39.4 °F 30.3 in SSW 5 mph 6 mph 76% 0 in CLR
02:25 46.6 °F 39 °F 30.3 in South 5 mph 8 mph 75% 0 in CLR
02:30 46.6 °F 39 °F 30.3 in South 5 mph 6 mph 75% 0 in CLR
02:35 46.4 °F 38.8 °F 30.3 in SSW 5 mph 7 mph 75% 0 in CLR
02:40 46.2 °F 39 °F 30.4 in SSW 5 mph 6 mph 76% 0 in CLR
02:45 46.2 °F 39 °F 30.4 in South 5 mph 6 mph 76% 0 in CLR
02:50 46 °F 38.8 °F 30.4 in South 5 mph 9 mph 76% 0 in CLR
02:55 45.9 °F 38.7 °F 30.3 in South 6 mph 9 mph 76% 0 in CLR
03:00 45.7 °F 38.5 °F 30.3 in South 6 mph 7 mph 76% 0 in CLR
03:05 45.3 °F 38.1 °F 30.3 in SSW 5 mph 9 mph 76% 0 in CLR
03:10 45.3 °F 38.1 °F 30.3 in SW 5 mph 7 mph 76% 0 in CLR
03:15 45.3 °F 38.1 °F 30.3 in SW 5 mph 6 mph 76% 0 in CLR
03:20 45.7 °F 38.5 °F 30.3 in SW 5 mph 6 mph 76% 0 in CLR
03:25 45.7 °F 38.1 °F 30.4 in SW 3 mph 6 mph 75% 0 in CLR
03:30 45.7 °F 38.1 °F 30.4 in WSW 3 mph 5 mph 75% 0 in CLR
03:35 45.7 °F 38.1 °F 30.4 in WSW 2 mph 6 mph 75% 0 in CLR
03:40 45.7 °F 38.1 °F 30.4 in WSW 2 mph 5 mph 75% 0 in CLR
03:45 45.5 °F 38.1 °F 30.4 in SW 2 mph 6 mph 75% 0 in CLR
03:50 45.5 °F 38.1 °F 30.4 in South 2 mph 6 mph 75% 0 in CLR
03:55 45.3 °F 37.9 °F 30.4 in South 3 mph 6 mph 75% 0 in CLR
04:00 45.1 °F 37.8 °F 30.4 in South 3 mph 6 mph 75% 0 in CLR
04:05 45 °F 37.8 °F 30.4 in SSW 3 mph 7 mph 76% 0 in CLR
04:10 45 °F 37.8 °F 30.4 in SSW 3 mph 7 mph 76% 0 in CLR
04:15 44.8 °F 37.8 °F 30.4 in South 4.3 mph 5.8 mph 76% 0 in CLR
04:20 44.8 °F 37.6 °F 30.4 in South 5 mph 7 mph 76% 0 in CLR
04:25 44.4 °F 37.2 °F 30.4 in South 5 mph 8 mph 76% 0 in CLR
04:30 44.1 °F 37.2 °F 30.4 in South 4.7 mph 6.9 mph 77% 0 in CLR
04:35 43.9 °F 37 °F 30.4 in SSE 5.2 mph 4.6 mph 77% 0 in CLR
04:40 43.5 °F 36.9 °F 30.3 in SSE 5 mph 6 mph 77% 0 in CLR
04:45 43.3 °F 36.9 °F 30.3 in South 3 mph 6 mph 78% 0 in CLR
04:50 43.3 °F 37.2 °F 30.3 in SW 3 mph 5 mph 79% 0 in CLR
04:55 43.3 °F 37.2 °F 30.4 in WSW 2 mph 6 mph 79% 0 in CLR
05:00 43.5 °F 37.4 °F 30.4 in SW 2 mph 7 mph 79% 0 in CLR
05:05 43.5 °F 37.4 °F 30.4 in SSW 5 mph 7 mph 79% 0 in CLR
05:10 43.5 °F 37 °F 30.3 in South 5 mph 9 mph 78% 0 in CLR
05:15 43.5 °F 37 °F 30.3 in South 6 mph 9 mph 78% 0 in CLR
05:20 43.3 °F 36.7 °F 30.3 in SSE 6 mph 10 mph 77% 0 in CLR
05:25 43.2 °F 36.9 °F 30.3 in South 5 mph 6 mph 78% 0 in CLR
05:30 43.2 °F 36.9 °F 30.3 in SSW 5 mph 7 mph 78% 0 in CLR
05:35 43.3 °F 36.9 °F 30.3 in SW 5 mph 7 mph 78% 0 in CLR
05:40 43.3 °F 36.7 °F 30.3 in West 5 mph 7 mph 77% 0 in CLR
05:45 43.3 °F 36.7 °F 30.3 in WSW 5 mph 7 mph 77% 0 in CLR
05:50 43.3 °F 36.7 °F 30.3 in SW 5 mph 6 mph 77% 0 in CLR
05:55 43.5 °F 36.9 °F 30.3 in South 5 mph 6 mph 77% 0 in CLR
06:00 43.5 °F 36.5 °F 30.3 in SE 5 mph 6 mph 76% 0 in CLR
06:05 43.3 °F 36.3 °F 30.3 in SE 3 mph 9 mph 76% 0 in CLR
06:10 43 °F 36.3 °F 30.3 in SSE 3 mph 8 mph 77% 0 in CLR
06:15 42.4 °F 36.1 °F 30.3 in SSE 6 mph 10 mph 78% 0 in CLR
06:20 42.1 °F 36 °F 30.3 in South 6 mph 6 mph 79% 0 in CLR
06:25 42.1 °F 36 °F 30.3 in SSW 5 mph 6 mph 79% 0 in CLR
06:30 42.3 °F 36.1 °F 30.3 in SW 5 mph 7 mph 79% 0 in CLR
06:35 42.6 °F 36.7 °F 30.3 in SW 5 mph 7 mph 79% 0 in CLR
06:40 43 °F 36.7 °F 30.3 in SW 5 mph 7 mph 78% 0 in CLR
06:45 43.2 °F 36.3 °F 30.3 in WSW 5 mph 7 mph 77% 0 in CLR
06:50 43 °F 36.3 °F 30.3 in West 5 mph 5 mph 77% 0 in CLR
06:55 43 °F 36.3 °F 30.3 in West 2 mph 5 mph 77% 0 in CLR
07:00 43 °F 36.3 °F 30.3 in WSW 2 mph 7 mph 77% 0 in CLR
07:05 43.3 °F 36.3 °F 30.3 in WSW 3 mph 6 mph 76% 0 in CLR
07:10 43.3 °F 36 °F 30.4 in SW 3 mph 5 mph 75% 0 in CLR
07:15 43.3 °F 36 °F 30.4 in SSE 3 mph 6 mph 75% 0 in CLR
07:20 42.4 °F 35.4 °F 30.4 in SE 3 mph 8 mph 76% 0 in CLR
07:25 42.1 °F 35.2 °F 30.4 in SSE 5 mph 7 mph 77% 0 in CLR
07:30 41.5 °F 35.2 °F 30.4 in SSE 5 mph 8 mph 78% 0 in CLR
07:35 41.2 °F 35.1 °F 30.4 in SSE 6 mph 10 mph 79% 0 in CLR
07:40 40.8 °F 35.1 °F 30.4 in South 6 mph 6 mph 80% 0 in CLR
07:45 41 °F 35.2 °F 30.4 in South 5 mph 7 mph 80% 0 in CLR
07:50 41.2 °F 35.4 °F 30.4 in South 5 mph 5 mph 80% 0 in CLR
07:55 41.5 °F 36 °F 30.4 in SSE 3 mph 7 mph 80% 0 in CLR
08:00 42.1 °F 36 °F 30.4 in South 3 mph 8 mph 79% 0 in CLR
08:05 42.4 °F 36.1 °F 30.4 in SSW 5 mph 7 mph 78% 0 in CLR
08:10 43 °F 36.3 °F 30.4 in South 5 mph 7 mph 77% 0 in CLR
08:15 43 °F 36.3 °F 30.4 in SE 5 mph 9 mph 77% 0 in CLR
08:20 42.8 °F 36.1 °F 30.4 in SE 5 mph 10 mph 77% 0 in CLR
08:25 42.4 °F 36.1 °F 30.4 in SSE 6 mph 10 mph 78% 0 in CLR
08:30 42.3 °F 36.1 °F 30.4 in SSE 6 mph 11 mph 79% 0 in CLR
08:35 42.1 °F 36 °F 30.4 in SSE 7 mph 12 mph 79% 0 in CLR
08:40 42.3 °F 36.1 °F 30.4 in SSE 7 mph 9 mph 79% 0 in CLR
08:45 42.4 °F 36.3 °F 30.4 in SSE 6 mph 8 mph 79% 0 in CLR
08:50 42.6 °F 36.7 °F 30.4 in SSE 6 mph 8 mph 79% 0 in CLR
08:55 43.2 °F 36.7 °F 30.4 in South 6 mph 7 mph 78% 0 in CLR
09:00 43.5 °F 36.9 °F 30.4 in SSW 6 mph 6 mph 77% 0 in CLR
09:05 43.9 °F 36.9 °F 30.4 in SSW 5 mph 6 mph 76% 0 in CLR
09:10 44.2 °F 36.9 °F 30.4 in SSW 5 mph 6 mph 75% 0 in CLR
09:15 44.4 °F 37 °F 30.4 in WSW 3 mph 7 mph 75% 0 in CLR
09:20 45 °F 37 °F 30.4 in WSW 3 mph 6 mph 74% 0 in CLR
09:25 45.1 °F 37 °F 30.4 in SW 5 mph 7 mph 73% 0 in CLR
09:30 45.7 °F 36.9 °F 30.4 in SW 5 mph 9 mph 71% 0 in CLR
09:35 46 °F 36.9 °F 30.4 in SSW 6 mph 8 mph 70% 0 in CLR
09:40 46.2 °F 37 °F 30.4 in SSW 6 mph 6 mph 70% 0 in CLR
09:45 46.6 °F 37.2 °F 30.4 in SSW 3 mph 5 mph 70% 0 in CLR
09:50 46.9 °F 37.2 °F 30.4 in WSW 3 mph 5 mph 69% 0 in CLR
09:55 47.5 °F 37.4 °F 30.4 in West 2 mph 5 mph 68% 0 in CLR
10:00 47.8 °F 37 °F 30.4 in SW 2 mph 6 mph 66% 0 in CLR
10:05 47.8 °F 37 °F 30.4 in SW 3 mph 7 mph 66% 0 in CLR
10:10 48 °F 37.2 °F 30.4 in SSW 3 mph 7 mph 66% 0 in CLR
10:15 48.6 °F 37.2 °F 30.4 in South 5 mph 9 mph 65% 0 in CLR
10:20 48.9 °F 37.8 °F 30.4 in SSE 5 mph 8 mph 65% 0 in CLR
10:25 49.3 °F 37.6 °F 30.4 in SSE 5 mph 7 mph 64% 0 in CLR
10:30 49.5 °F 37.2 °F 30.4 in South 5 mph 8 mph 63% 0 in CLR
10:35 49.5 °F 37 °F 30.4 in SSW 5 mph 8 mph 62% 0 in CLR
10:40 49.6 °F 37.2 °F 30.4 in SSW 5 mph 5 mph 62% 0 in CLR
10:45 50.2 °F 37.6 °F 30.4 in SW 3 mph 6 mph 62% 0 in CLR
10:50 50.2 °F 37.8 °F 30.4 in South 3.1 mph 6.2 mph 62% 0 in CLR
10:55 50.5 °F 37.9 °F 30.4 in SW 3 mph 7 mph 62% 0 in CLR
11:00 51.1 °F 38.1 °F 30.4 in SSW 3 mph 7 mph 61% 0 in CLR
11:05 51.4 °F 38.5 °F 30.4 in SSW 5 mph 7 mph 61% 0 in CLR
11:10 52 °F 38.5 °F 30.4 in SSW 5 mph 7 mph 60% 0 in CLR
11:15 52.3 °F 38.5 °F 30.4 in South 5 mph 8 mph 59% 0 in CLR
11:20 52.9 °F 38.8 °F 30.4 in South 5 mph 7 mph 59% 0 in CLR
11:25 53.2 °F 38.8 °F 30.4 in SSE 5 mph 9 mph 58% 0 in CLR
11:30 53.8 °F 38.8 °F 30.4 in South 5 mph 8 mph 57% 0 in CLR
11:35 54 °F 38.7 °F 30.4 in South 5 mph 9 mph 56% 0 in CLR
11:40 54.3 °F 38.5 °F 30.4 in SSW 5 mph 8 mph 55% 0 in CLR
11:45 54.7 °F 38.5 °F 30.4 in SSW 5 mph 8 mph 54% 0 in CLR
11:50 55 °F 38.7 °F 30.4 in SSW 5 mph 7 mph 54% 0 in CLR
11:55 55.8 °F 38.3 °F 30.4 in South 5 mph 8 mph 52% 0 in CLR
12:00 56.1 °F 38.3 °F 30.4 in South 5 mph 8 mph 51% 0 in CLR
12:05 56.8 °F 38.8 °F 30.4 in South 5 mph 8 mph 51% 0 in CLR
12:10 57.4 °F 38.8 °F 30.4 in South 5 mph 8 mph 50% 0 in CLR
12:15 57.7 °F 38.7 °F 30.4 in South 5 mph 9 mph 49% 0 in CLR
12:20 57.7 °F 38.1 °F 30.4 in South 5 mph 8 mph 48% 0 in CLR
12:25 57.9 °F 38.8 °F 30.4 in SSE 6 mph 7 mph 49% 0 in CLR
12:30 58.5 °F 38.8 °F 30.4 in South 6 mph 6 mph 48% 0 in CLR
12:35 59.2 °F 38.5 °F 30.4 in SSW 3 mph 6 mph 46% 0 in CLR
12:40 59.5 °F 38.1 °F 30.4 in SSW 3 mph 6 mph 45% 0 in CLR
12:45 60.1 °F 38.7 °F 30.4 in SW 3 mph 7 mph 45% 0 in CLR
12:50 60.3 °F 38.1 °F 30.4 in WSW 3 mph 6 mph 44% 0 in CLR
12:55 60.6 °F 38.7 °F 30.4 in SW 3 mph 6 mph 44% 0 in CLR
13:00 61.2 °F 39 °F 30.4 in SSW 3 mph 6 mph 44% 0 in CLR
13:05 61.5 °F 38.8 °F 30.4 in SSW 3 mph 7 mph 43% 0 in CLR
13:10 62.1 °F 38.7 °F 30.4 in SSW 3 mph 7 mph 42% 0 in CLR
13:15 62.4 °F 39 °F 30.4 in South 5 mph 6 mph 42% 0 in CLR
13:20 63 °F 38.8 °F 30.4 in SSE 5 mph 5 mph 41% 0 in CLR
13:25 63.3 °F 38.7 °F 30.4 in SSE 3 mph 7 mph 40% 0 in CLR
13:30 63.3 °F 39.4 °F 30.4 in SSE 3 mph 5 mph 41% 0 in CLR
13:35 63.9 °F 39 °F 30.4 in SSE 3 mph 6 mph 40% 0 in CLR
13:40 64 °F 39.2 °F 30.4 in SSE 3 mph 6 mph 40% 0 in CLR
13:45 64.4 °F 38.8 °F 30.4 in SSE 3 mph 5 mph 39% 0 in CLR
13:50 64.8 °F 38.5 °F 30.4 in South 3 mph 5 mph 38% 0 in CLR
13:55 65.1 °F 38.8 °F 30.4 in SSE 2 mph 7 mph 38% 0 in CLR
14:00 65.1 °F 38.8 °F 30.4 in South 2 mph 7 mph 38% 0 in CLR
14:05 65.1 °F 38.1 °F 30.4 in South 5 mph 7 mph 37% 0 in CLR
14:10 65.3 °F 38.3 °F 30.4 in South 5 mph 7 mph 37% 0 in CLR
14:15 65.5 °F 38.5 °F 30.4 in SSW 5 mph 7 mph 37% 0 in CLR
14:20 65.8 °F 38.8 °F 30.4 in SSW 5 mph 6 mph 37% 0 in CLR
14:25 66 °F 38.3 °F 30.3 in South 3 mph 6 mph 36% 0 in CLR
14:30 66.2 °F 38.5 °F 30.3 in South 3 mph 5 mph 36% 0 in CLR
14:35 66.4 °F 38.7 °F 30.3 in SSW 2 mph 3 mph 36% 0 in CLR
14:40 66.6 °F 38.8 °F 30.3 in SW 2 mph 5 mph 36% 0 in CLR
14:45 66.4 °F 38.7 °F 30.3 in SW 2 mph 5 mph 36% 0 in CLR
14:50 66.4 °F 38.7 °F 30.3 in SW 2 mph 4 mph 36% 0 in CLR
14:55 66.4 °F 38.7 °F 30.3 in SSW 2 mph 6 mph 36% 0 in CLR
15:00 66.6 °F 38.8 °F 30.3 in SSE 2 mph 8 mph 36% 0 in CLR
15:05 66.6 °F 38.8 °F 30.3 in SSE 5 mph 8 mph 36% 0 in CLR
15:10 66.6 °F 38.8 °F 30.3 in SSE 4.3 mph 6.4 mph 36% 0 in CLR
15:15 66.6 °F 38.8 °F 30.3 in South 5 mph 8 mph 36% 0 in CLR
15:20 66.6 °F 38.8 °F 30.3 in South 4.3 mph 6.9 mph 36% 0 in CLR
15:25 66.7 °F 38.8 °F 30.3 in SSE 5 mph 8 mph 36% 0 in CLR
15:30 66.7 °F 38.8 °F 30.3 in SSE 5 mph 11 mph 36% 0 in CLR
15:35 66.7 °F 38.8 °F 30.3 in SSE 6 mph 9 mph 36% 0 in CLR
15:40 66.6 °F 38.8 °F 30.3 in South 6 mph 7 mph 36% 0 in CLR
15:45 66.9 °F 39 °F 30.3 in SSW 6 mph 10 mph 36% 0 in CLR
15:50 67.3 °F 39.4 °F 30.3 in SW 6 mph 9 mph 36% 0 in CLR
15:55 67.5 °F 39.6 °F 30.3 in WSW 5 mph 7 mph 36% 0 in CLR
16:00 67.5 °F 39.6 °F 30.3 in WSW 5 mph 10 mph 36% 0 in CLR
16:05 67.5 °F 40.3 °F 30.3 in WNW 5 mph 21 mph 37% 0 in CLR
16:10 67.3 °F 40.8 °F 30.3 in WNW 5 mph 23 mph 38% 0 in CLR
16:15 67.1 °F 40.6 °F 30.3 in WNW 13 mph 18 mph 38% 0 in CLR
16:20 66.9 °F 40.5 °F 30.3 in WNW 13 mph 21 mph 38% 0 in CLR
16:25 66.7 °F 40.3 °F 30.3 in NW 11.8 mph 20.7 mph 38% 0 in CLR
16:30 66.7 °F 41 °F 30.3 in WNW 12 mph 19 mph 39% 0 in CLR
16:35 66.6 °F 40.8 °F 30.3 in WNW 10 mph 18 mph 39% 0 in CLR
16:40 66.2 °F 40.5 °F 30.3 in WNW 10 mph 21 mph 39% 0 in CLR
16:45 66 °F 40.3 °F 30.3 in WNW 12 mph 17 mph 39% 0 in CLR
16:50 66.4 °F 40.6 °F 30.3 in WNW 12 mph 15 mph 39% 0 in CLR
16:55 66.4 °F 40.6 °F 30.3 in WNW 9 mph 17 mph 39% 0 in CLR
17:00 66.2 °F 40.5 °F 30.3 in WNW 9 mph 14 mph 39% 0 in CLR
17:05 66 °F 40.3 °F 30.3 in WNW 8 mph 16 mph 39% 0 in CLR
17:10 66 °F 40.3 °F 30.3 in WNW 8 mph 9 mph 39% 0 in CLR
17:15 65.8 °F 40.8 °F 30.3 in West 7 mph 12 mph 40% 0 in CLR
17:20 65.7 °F 40.6 °F 30.3 in West 7 mph 14 mph 40% 0 in CLR
17:25 65.7 °F 40.6 °F 30.4 in West 6 mph 11 mph 40% 0 in CLR
17:30 65.5 °F 40.5 °F 30.4 in WSW 6 mph 11 mph 40% 0 in CLR
17:35 65.5 °F 40.5 °F 30.4 in WSW 6 mph 11 mph 40% 0 in CLR
17:40 65.3 °F 41 °F 30.4 in WSW 6 mph 10 mph 41% 0 in CLR
17:45 65.1 °F 40.8 °F 30.4 in WSW 5 mph 10 mph 41% 0 in CLR
17:50 65.1 °F 40.8 °F 30.4 in WSW 5 mph 9 mph 41% 0 in CLR
17:55 64.9 °F 40.6 °F 30.4 in WSW 5 mph 8 mph 41% 0 in CLR
18:00 64.9 °F 40.6 °F 30.4 in SW 5 mph 6 mph 41% 0 in CLR
18:05 64.9 °F 40.6 °F 30.4 in SW 5 mph 6 mph 41% 0 in CLR
18:10 64.8 °F 40.5 °F 30.4 in SSW 5 mph 5 mph 41% 0 in CLR
18:15 64.6 °F 40.5 °F 30.4 in SSW 3 mph 5 mph 41% 0 in CLR
18:20 64.6 °F 41 °F 30.4 in SSW 3 mph 6 mph 42% 0 in CLR
18:25 64.4 °F 40.8 °F 30.4 in SSW 5 mph 7 mph 42% 0 in CLR
18:30 64 °F 40.5 °F 30.4 in SSW 5 mph 7 mph 42% 0 in CLR
18:35 63.9 °F 40.8 °F 30.4 in SSW 5 mph 5 mph 43% 0 in CLR
18:40 63.7 °F 40.8 °F 30.4 in SSW 5 mph 5 mph 43% 0 in CLR
18:45 63.5 °F 40.6 °F 30.4 in SSW 2 mph 6 mph 43% 0 in CLR
18:50 63.3 °F 40.5 °F 30.4 in SSW 2 mph 7 mph 43% 0 in CLR
18:55 63.3 °F 40.5 °F 30.4 in WSW 5 mph 7 mph 43% 0 in CLR
19:00 63 °F 40.6 °F 30.4 in WSW 5 mph 6 mph 44% 0 in CLR
19:05 62.8 °F 40.5 °F 30.4 in WSW 3 mph 6 mph 44% 0 in CLR
19:10 62.8 °F 40.5 °F 30.4 in WSW 3 mph 6 mph 44% 0 in CLR
19:15 62.8 °F 41.2 °F 30.4 in SW 3 mph 5 mph 45% 0 in CLR
19:20 62.4 °F 40.8 °F 30.4 in SSW 3 mph 2 mph 45% 0 in CLR
19:25 62.2 °F 40.6 °F 30.4 in South 1 mph 4 mph 45% 0 in CLR
19:30 61.9 °F 40.3 °F 30.4 in SW 1 mph 4 mph 45% 0 in CLR
19:35 61.7 °F 40.6 °F 30.4 in NW 2 mph 3 mph 46% 0 in CLR
19:40 61.5 °F 40.5 °F 30.4 in NW 2 mph 3 mph 46% 0 in CLR
19:45 61.3 °F 40.5 °F 30.4 in NW 1 mph 4 mph 46% 0 in CLR
19:50 61.3 °F 40.8 °F 30.4 in West 1 mph 5 mph 47% 0 in CLR
19:55 61.3 °F 40.8 °F 30.4 in SW 2 mph 5 mph 47% 0 in CLR
20:00 61.2 °F 40.8 °F 30.4 in SW 2 mph 5 mph 47% 0 in CLR
20:05 61 °F 41.2 °F 30.4 in SW 3 mph 5 mph 48% 0 in CLR
20:10 60.6 °F 40.8 °F 30.4 in SSW 3 mph 7 mph 48% 0 in CLR
20:15 60.3 °F 41 °F 30.4 in SSE 5 mph 7 mph 49% 0 in CLR
20:20 59.7 °F 41.2 °F 30.4 in SSE 5 mph 7 mph 50% 0 in CLR
20:25 59.7 °F 41 °F 30.4 in SSE 3 mph 7 mph 50% 0 in CLR
20:30 59.7 °F 41 °F 30.4 in South 3 mph 6 mph 50% 0 in CLR
20:35 59.7 °F 41.5 °F 30.4 in SW 5 mph 6 mph 51% 0 in CLR
20:40 59.5 °F 41.4 °F 30.4 in WSW 5 mph 6 mph 51% 0 in CLR
20:45 59.4 °F 41.2 °F 30.4 in WSW 5 mph 6 mph 51% 0 in CLR
20:50 59.4 °F 41.2 °F 30.4 in SW 5 mph 7 mph 51% 0 in CLR
20:55 59.5 °F 40.8 °F 30.4 in SW 5 mph 5 mph 50% 0 in CLR
21:00 59.4 °F 41.2 °F 30.4 in SW 5 mph 4 mph 51% 0 in CLR
21:05 58.6 °F 41 °F 30.4 in SSW 2 mph 6 mph 52% 0 in CLR
21:10 58.3 °F 41.2 °F 30.4 in ESE 2 mph 6 mph 53% 0 in CLR
21:15 58.3 °F 41.2 °F 30.4 in South 5 mph 7 mph 53% 0 in CLR
21:20 57.9 °F 40.8 °F 30.4 in South 5 mph 7 mph 53% 0 in CLR
21:25 57.6 °F 41 °F 30.4 in SSE 5 mph 7 mph 54% 0 in CLR
21:30 56.7 °F 41.2 °F 30.4 in SSE 5 mph 8 mph 56% 0 in CLR
21:35 56.1 °F 41.2 °F 30.4 in South 5 mph 8 mph 57% 0 in CLR
21:40 55.9 °F 40.8 °F 30.4 in SSW 5 mph 5 mph 57% 0 in CLR
21:45 55.9 °F 41 °F 30.4 in SSW 2 mph 5 mph 57% 0 in CLR
21:50 56.1 °F 41.2 °F 30.4 in SSW 2 mph 5 mph 57% 0 in CLR
21:55 56.1 °F 41.2 °F 30.4 in South 2 mph 7 mph 57% 0 in CLR
22:00 56.5 °F 41.4 °F 30.4 in South 2 mph 6 mph 57% 0 in CLR
22:05 56.1 °F 41.2 °F 30.4 in SW 5 mph 5 mph 57% 0 in CLR
22:10 55.8 °F 41.2 °F 30.4 in WSW 5 mph 5 mph 58% 0 in CLR
22:15 55.6 °F 41 °F 30.4 in WSW 2 mph 5 mph 58% 0 in CLR
22:20 55 °F 41 °F 30.4 in West 2 mph 5 mph 59% 0 in CLR
22:25 54.9 °F 41.2 °F 30.4 in West 2 mph 5 mph 60% 0 in CLR
22:30 54.7 °F 40.8 °F 30.4 in WSW 2 mph 5 mph 60% 0 in CLR
22:35 54.3 °F 41.2 °F 30.4 in WSW 2 mph 5 mph 61% 0 in CLR
22:40 54.1 °F 41 °F 30.4 in WSW 2 mph 5 mph 61% 0 in CLR
22:45 54.1 °F 41 °F 30.4 in West 2 mph 5 mph 61% 0 in CLR
22:50 54 °F 41.2 °F 30.4 in WNW 2 mph 5 mph 62% 0 in CLR
22:55 53.8 °F 41.2 °F 30.4 in West 2 mph 4 mph 62% 0 in CLR
23:00 53.4 °F 41.2 °F 30.4 in WSW 2 mph 4 mph 63% 0 in CLR
23:05 53.8 °F 41.5 °F 30.4 in SW 2 mph 5 mph 63% 0 in CLR
23:10 54 °F 41.2 °F 30.4 in SW 2 mph 5 mph 62% 0 in CLR
23:15 54.1 °F 41.4 °F 30.4 in South 3 mph 6 mph 62% 0 in CLR
23:20 54.1 °F 41.4 °F 30.4 in SE 3 mph 5 mph 62% 0 in CLR
23:25 54.1 °F 41.4 °F 30.5 in SE 2 mph 5 mph 62% 0 in CLR
23:30 54 °F 41.5 °F 30.5 in SE 2 mph 5 mph 63% 0 in CLR
23:35 53.8 °F 41.9 °F 30.5 in SSE 2 mph 5 mph 64% 0 in CLR
23:40 53.8 °F 41.9 °F 30.5 in SE 2 mph 5 mph 64% 0 in CLR
23:45 53.2 °F 41.7 °F 30.5 in SE 2 mph 5 mph 65% 0 in CLR
23:50 53.1 °F 42.1 °F 30.5 in SSE 2 mph 5 mph 66% 0 in CLR
23:55 53.2 °F 41.7 °F 30.5 in SSW 2 mph 6 mph 65% 0 in CLR
Murcia-Puente Tocinos, España
Compliments of Weather Underground - 2.75 mb

La estación de MeteoMurcia.com, publica sus datos en los siguientes proyectos:

Weather Underground PWS IMURCIAP2 Meteoclimatic www.awekas.at

W3Counter
Web Analytics